Location: Zagreb
(45.8000°N, 16.0000°E)
Time: 21:32:38
(UTC+02:00)

ISS - Visible Passes

Search period start: 25 September 2020 00:00
Search period end: 05 October 2020 00:00
Orbit: 419 x 420 km, 51.6° (Epoch: 26 September)

Date Brightness Start Highest point End Pass type
(mag) Time Alt. Az. Time Alt. Az. Time Alt. Az.
25 Sep -2.6 19:22:04 10° W 19:25:15 38° NNW 19:28:27 10° NE visible
25 Sep -2.0 20:59:35 10° WNW 21:02:08 28° NNW 21:02:08 28° NNW visible
26 Sep -2.2 20:12:05 10° WNW 20:15:05 29° N 20:16:31 21° NE visible
26 Sep -0.3 21:49:06 10° WNW 21:49:28 13° NW 21:49:28 13° NW visible
27 Sep -2.2 19:24:30 10° WNW 19:27:32 30° N 19:30:34 10° ENE visible
27 Sep -1.9 21:01:42 10° NW 21:03:50 29° NNW 21:03:50 29° NNW visible
28 Sep -2.6 20:14:17 10° NW 20:17:23 32° N 20:18:11 28° NE visible
28 Sep -0.2 21:51:04 10° WNW 21:51:09 10° WNW 21:51:09 10° WNW visible
29 Sep -2.4 19:26:47 10° WNW 19:29:49 30° N 19:32:33 12° ENE visible
29 Sep -1.8 21:03:40 10° WNW 21:05:30 29° NW 21:05:30 29° NW visible
30 Sep -3.3 20:16:15 10° WNW 20:19:33 48° NNE 20:19:53 46° NE visible
01 Oct -2.9 19:28:49 10° NW 19:32:01 38° NNE 19:34:17 17° ENE visible
01 Oct -1.5 21:05:38 10° WNW 21:07:15 25° WNW 21:07:15 25° WNW visible
02 Oct -3.9 20:18:08 10° WNW 20:21:32 84° SSW 20:21:42 78° SSE visible
03 Oct -3.7 19:30:41 10° WNW 19:34:03 67° NNE 19:36:12 20° ESE visible
03 Oct -1.0 21:07:56 10° W 21:09:10 17° WSW 21:09:10 17° WSW visible
04 Oct -2.5 20:20:11 10° WNW 20:23:16 34° SW 20:23:45 32° SSW visible
